PUUANAHULU HI US current weather conditions

sailwx.info

Wind from 303 at 6 knots gusting 10

Air temperature 20.6° C
Dewpoint 17.0° C

Last reported at 2018-Feb-22 00:37 UTC.
Time now 2018-Feb-22 01:16 UTC

Location: N 19°50' W 155°46'.
View on Google Maps.

See reports from other nearby stations

  
Tides and Currents Weather Stations Pressure Air Temp Water Temp Dewpoint Dewpoint Depression Visibility Wind Speed Wind Dir Waves Ship Positions
date/time (UTC)wind fromknots sea level pressurealtimeterstation pressurevisibilityair tempwater tempwave heightnotes
2018-Feb-22 00:37 303 6 gusting 10 20.6
2018-Feb-21 23:37 314 5 gusting 11 21.1
2018-Feb-21 22:37 339 5 gusting 12 22.8
2018-Feb-21 21:37 341 7 gusting 13 22.2
2018-Feb-21 20:37 297 6 gusting 9 23.3
2018-Feb-21 19:37 326 3 gusting 5 22.8
2018-Feb-21 18:37 142 4 gusting 7 21.1
2018-Feb-21 17:37 133 5 gusting 8 17.2
2018-Feb-21 16:37 126 6 gusting 10 15.6
2018-Feb-21 15:37 135 6 gusting 10 15.6
2018-Feb-21 14:37 153 6 gusting 12 15.0
2018-Feb-21 13:37 151 6 gusting 10 16.1
2018-Feb-21 12:37 142 6 gusting 9 15.6
2018-Feb-21 11:37 147 6 gusting 11 15.6
2018-Feb-21 10:37 144 6 gusting 10 15.0
2018-Feb-21 09:37 123 6 gusting 8 15.0
2018-Feb-21 08:37 136 5 gusting 7 15.6
2018-Feb-21 07:37 126 4 gusting 6 16.1
2018-Feb-21 06:37 130 5 gusting 7 16.7
2018-Feb-21 05:37 119 4 gusting 6 16.7
2018-Feb-21 04:37 306 2 gusting 5 18.9
2018-Feb-21 03:37 315 3 gusting 7 21.7
2018-Feb-21 02:37 316 5 gusting 10 23.3
2018-Feb-21 01:37 302 5 gusting 11 22.8
2018-Feb-21 00:37 313 5 gusting 13 23.9
2018-Feb-20 23:37 317 5 gusting 12 23.3
2018-Feb-20 22:37 302 6 gusting 11 23.3
2018-Feb-20 21:37 340 3 gusting 10 22.8
2018-Feb-20 20:37 332 3 gusting 7 22.8
2018-Feb-20 19:37 354 4 gusting 7 21.1
2018-Feb-20 18:37 034 3 gusting 8 20.0
2018-Feb-20 17:37 141 6 gusting 8 15.0
2018-Feb-20 16:37 109 6 gusting 13 13.9
2018-Feb-20 15:37 129 6 gusting 10 13.9
2018-Feb-20 14:37 129 6 gusting 9 13.3
2018-Feb-20 13:37 134 5 gusting 6 13.9
2018-Feb-20 12:37 149 5 gusting 6 13.9
2018-Feb-20 11:37 139 5 gusting 9 14.4
2018-Feb-20 10:37 133 6 gusting 7 15.0
2018-Feb-20 09:37 138 4 gusting 7 15.6
2018-Feb-20 08:37 134 6 gusting 7 15.0
2018-Feb-20 07:37 123 6 gusting 8 15.6
2018-Feb-20 06:37 132 5 gusting 6 15.6
2018-Feb-20 05:37 134 4 gusting 5 16.1
2018-Feb-20 04:37 18.9
2018-Feb-20 03:37 295 4 gusting 9 21.7
2018-Feb-20 02:37 311 6 gusting 11 23.3
2018-Feb-20 01:37 319 6 gusting 12 23.3